DW6033 Weather Reports


time (UTC)temp
F
wind
direction
speed
knots
gust
knots
rain 1hr
in
rain 24hr
in
rain mn
in
humidity
%
barometer
mb
20260508111524 48 290 7.8 11.3 0.00 0.00 0.00 56 1008.5
20260508110023 47 321 3.5 7.8 0.00 0.00 0.00 59 1008.4
20260508104521 46 287 6.1 9.6 0.00 0.00 0.00 61 1008.2
20260508103022 45 306 4.3 7.0 0.00 0.00 0.00 64 1008.0
20260508101522 44 306 3.5 6.1 0.00 0.00 0.00 66 1007.9
20260508100018 44 285 4.3 6.1 0.00 0.00 0.00 66 1007.5
20260508094514 43 316 3.5 5.2 0.00 0.00 0.00 66 1007.2
20260508093012 43 292 3.5 6.1 0.00 0.00 0.00 66 1007.0
20260508091522 43 299 3.5 6.1 0.00 0.00 0.00 66 1007.0
20260508090013 43 312 3.5 5.2 0.00 0.00 0.00 66 1006.7
20260508084503 43 311 2.6 3.5 0.00 0.00 0.00 66 1006.8
20260508083100 45 306 2.6 4.3 0.00 0.00 0.00 60 1006.7
20260508081558 45 325 1.7 5.2 0.00 0.00 0.00 58 1006.5
20260508080059 45 306 2.6 5.2 0.00 0.00 0.00 59 1006.5
20260508074555 46 330 3.5 6.1 0.00 0.00 0.00 56 1006.4
20260508073054 46 283 3.5 7.0 0.00 0.00 0.00 57 1006.3
20260508071554 46 308 3.5 8.7 0.00 0.00 0.00 55 1006.1
20260508070053 46 282 4.3 8.7 0.00 0.00 0.00 55 1006.1
20260508064551 47 325 4.3 7.8 0.00 0.01 0.00 55 1006.3
20260508063115 47 313 6.1 10.4 0.00 0.01 0.00 55 1006.2
20260508061546 47 310 5.2 9.6 0.00 0.01 0.00 54 1006.2
20260508060041 47 326 6.1 12.2 0.00 0.01 0.00 53 1006.5
20260508054542 47 339 4.3 8.7 0.00 0.15 0.00 52 1006.6
20260508053051 47 277 3.5 9.6 0.00 0.15 0.00 52 1006.6
20260508051602 47 273 4.3 7.8 0.00 0.15 0.00 54 1006.5
20260508050035 48 311 4.3 7.8 0.00 0.15 0.00 51 1006.7
20260508044534 48 278 4.3 8.7 0.00 0.17 0.00 51 1006.7
20260508043032 48 285 6.1 13.0 0.00 0.17 0.00 51 1006.6
20260508041529 48 305 6.1 9.6 0.00 0.17 0.00 51 1006.7
20260508040025 48 296 5.2 8.7 0.00 0.17 0.00 50 1006.8
20260508034528 48 311 5.2 8.7 0.00 0.17 0.17 50 1006.8
20260508033032 49 290 7.0 9.6 0.00 0.17 0.17 49 1007.0
20260508031524 49 296 7.0 11.3 0.00 0.17 0.17 49 1007.0
20260508030024 50 300 7.0 13.0 0.00 0.17 0.17 47 1006.9
20260508024525 50 300 6.1 10.4 0.00 0.17 0.17 49 1006.7
20260508023028 50 286 8.7 13.9 0.00 0.17 0.17 48 1006.6
20260508021531 51 309 4.3 7.8 0.00 0.17 0.17 49 1006.4
20260508020022 51 348 3.5 8.7 0.00 0.17 0.17 46 1006.6
20260508014522 52 338 2.6 7.8 0.00 0.24 0.17 47 1006.5
20260508013021 53 325 8.7 14.8 0.00 0.24 0.17 46 1006.3
20260508011527 53 288 7.8 11.3 0.00 0.24 0.17 44 1006.4
20260508010035 54 326 7.0 14.8 0.00 0.24 0.17 44 1006.2
20260508004520 54 309 9.6 14.8 0.00 0.37 0.17 44 1005.7
20260508003019 55 309 8.7 16.5 0.00 0.37 0.17 45 1005.7
20260508001519 56 337 6.1 10.4 0.00 0.37 0.17 45 1005.4
20260508000019 57 303 7.8 17.4 0.00 0.37 0.17 43 1005.1
20260507234519 58 313 9.6 14.8 0.00 0.55 0.17 41 1004.9
20260507233018 59 274 7.8 13.9 0.00 0.55 0.17 34 1004.7
20260507231517 60 321 6.1 12.2 0.00 0.55 0.17 35 1004.4
20260507230021 60 275 10.4 18.2 0.00 0.55 0.17 34 1004.1
20260507224511 61 317 7.0 13.9 0.00 0.71 0.17 35 1003.7
20260507223009 61 277 8.7 18.2 0.00 0.71 0.17 38 1003.6
20260507221506 55 78 5.2 7.8 0.00 0.71 0.17 73 1003.5
20260507220005 58 126 4.3 7.0 0.00 0.71 0.17 65 1003.5
20260507214505 59 209 2.6 5.2 0.00 0.79 0.17 58 1003.6
20260507213005 58 289 2.6 7.0 0.00 0.79 0.17 60 1003.6
20260507211504 58 190 4.3 7.8 0.00 0.79 0.17 60 1003.6
20260507210003 58 261 4.3 9.6 0.00 0.79 0.17 62 1003.6
20260507204502 57 115 3.5 7.0 0.00 0.84 0.17 66 1003.5
20260507203005 58 165 3.5 8.7 0.00 0.84 0.17 64 1003.5
20260507201501 58 209 3.5 8.7 0.00 0.84 0.17 63 1003.3
20260507200001 58 261 5.2 10.4 0.00 0.84 0.17 62 1003.4
20260507194601 58 143 4.3 10.4 0.00 0.84 0.17 64 1003.5
20260507193101 58 221 4.3 14.8 0.00 0.84 0.17 64 1003.7
20260507191600 58 259 6.1 13.9 0.00 0.84 0.17 66 1003.7
20260507190059 59 213 7.0 14.8 0.00 0.84 0.17 65 1003.4
20260507184556 56 185 4.3 7.8 0.00 0.84 0.17 73 1003.6
20260507183055 53 61 2.6 4.3 0.00 0.84 0.17 81 1003.8
20260507181551 52 118 2.6 4.3 0.00 0.84 0.17 83 1003.9
20260507180051 51 79 2.6 9.6 0.00 0.84 0.17 84 1004.2
20260507174556 51 80 7.0 10.4 0.00 0.84 0.17 85 1004.2
20260507173054 54 119 3.5 9.6 0.00 0.84 0.17 78 1004.5
20260507171559 53 143 8.7 12.2 0.00 0.84 0.17 75 1004.4
20260507170050 53 145 5.2 9.6 0.00 0.84 0.17 76 1004.7
20260507164549 53 158 7.8 12.2 0.00 0.84 0.17 77 1004.8
20260507163046 53 145 10.4 13.0 0.00 0.84 0.17 78 1005.1
20260507161553 52 117 8.7 12.2 0.00 0.84 0.17 79 1005.1
20260507160045 53 134 7.0 10.4 0.00 0.84 0.17 78 1005.3
20260507154545 52 121 7.8 10.4 0.00 0.84 0.17 81 1005.5
20260507153057 52 134 6.1 9.6 0.00 0.84 0.17 82 1005.5
20260507151543 51 152 6.1 9.6 0.00 0.84 0.17 84 1005.7
20260507150049 51 140 5.2 8.7 0.00 0.84 0.17 84 1005.7
20260507144542 49 135 8.7 12.2 0.00 0.84 0.17 88 1005.8
20260507143041 48 122 8.7 10.4 0.00 0.84 0.17 88 1006.0
20260507141538 49 127 7.0 8.7 0.00 0.84 0.17 87 1006.2
20260507140037 49 134 6.1 10.4 0.00 0.84 0.17 84 1006.2
20260507134537 53 122 2.6 6.1 0.00 0.85 0.17 74 1006.2
20260507133035 54 294 3.5 8.7 0.00 0.85 0.17 70 1006.2
20260507131534 53 309 3.5 10.4 0.00 0.85 0.17 72 1006.5
20260507130052 52 311 7.0 11.3 0.00 0.85 0.17 74 1006.3
20260507124530 51 332 2.6 8.7 0.00 0.85 0.17 79 1006.3
20260507123029 51 270 7.0 10.4 0.00 0.85 0.17 80 1006.4
20260507121528 50 291 7.0 9.6 0.00 0.85 0.17 82 1005.9
20260507120034 50 290 6.1 7.8 0.00 0.85 0.17 84 1006.4
20260507114524 49 293 7.0 10.4 0.00 0.85 0.17 86 1006.4
20260507113023 49 295 7.0 8.7 0.00 0.85 0.17 87 1006.8